New Orleans, LA

3:17 PM CST on February 12, 2016 (GMT -0600)
Lakefront

Weather History for KNEW - March, 2013

Change the Weather History Date:

Saturday, March 16, 2013

  Actual Average Record
Temperature  
Mean Temperature 64 °F 63 °F  
Max Temperature 76 °F 72 °F 87 °F (2002)
Min Temperature 52 °F 54 °F 38 °F (1988)
Degree Days  
Heating Degree Days 1 4  
Month to date heating degree days 136 87  
Since 1 July heating degree days 1025 1196  
Cooling Degree Days 0 2  
Month to date cooling degree days 5 27  
Year to date cooling degree days 37 64  
Growing Degree Days 18 (Base 50)    
Moisture  
Dew Point 53 °F    
Average Humidity 68    
Maximum Humidity 93    
Minimum Humidity 43    
Precipitation  
Precipitation 0.00 in 0.14 in 1.61 in (1993)
Month to date precipitation 0.66 2.35  
Year to date precipitation 14.46 12.80  
Snow  
Snow 0.00 in - - ()
Month to date snowfall 0.0  
Since 1 July snowfall 0.0  
Snow Depth 0.00 in    
Sea Level Pressure  
Sea Level Pressure 30.04 in    
Wind  
Wind Speed 9 mph (SSW)    
Max Wind Speed 20 mph    
Max Gust Speed 24 mph    
Visibility 10 miles    
Events      
T = Trace of Precipitation, MM = Missing Value Source: NWS Daily Summary

Daily Weather History Graph

Daily Weather History Graph

Search for Another Location

Airport or City:

Trip Planner

Search our weather history database for the weather conditions in past years. The results will help you decide how hot, cold, wet, or windy it might be!

Date:

Astronomy

Mar. 16, 2013 Rise Set
Actual Time 7:08 AM CDT 7:09 PM CDT
Civil Twilight 6:44 AM CDT 7:33 PM CDT
Nautical Twilight 6:16 AM CDT 8:00 PM CDT
Astronomical Twilight 5:48 AM CDT 8:28 PM CDT
Moon 9:59 AM CDT (3/16) 11:55 PM CDT (3/16)
Length of Visible Light 12h 48m
Length of Day
12h 00m
Waxing Crescent, 23% of the Moon is Illuminated
Mar 16
Waxing Crescent
Mar 19
First Quarter
Mar 27
Full
Apr 2
Last Quarter
Apr 10
New

Hourly Weather History & Observations

Time (CDT) Temp. Dew Point Humidity Pressure Visibility Wind Dir Wind Speed Gust Speed Precip Events Conditions
12:53 AM 62.1 °F 51.1 °F 67% 30.14 in 10.0 mi SSW 6.9 mph - N/A   Clear
1:53 AM 61.0 °F 51.1 °F 70% 30.11 in 10.0 mi SSW 6.9 mph - N/A   Clear
2:53 AM 59.0 °F 50.0 °F 72% 30.08 in 10.0 mi South 8.1 mph - N/A   Clear
3:53 AM 57.9 °F 50.0 °F 75% 30.07 in 10.0 mi South 8.1 mph - N/A   Clear
4:53 AM 59.0 °F 51.1 °F 75% 30.05 in 10.0 mi South 10.4 mph - N/A   Clear
5:53 AM 59.0 °F 51.1 °F 75% 30.06 in 10.0 mi South 6.9 mph - N/A   Clear
6:53 AM 57.9 °F 51.1 °F 78% 30.08 in 9.0 mi South 3.5 mph - N/A   Clear
7:53 AM 60.1 °F 53.1 °F 78% 30.08 in 6.0 mi South 5.8 mph - N/A   Haze
8:53 AM 66.9 °F 55.9 °F 68% 30.09 in 10.0 mi South 9.2 mph - N/A   Clear
9:53 AM 71.1 °F 55.0 °F 57% 30.09 in 10.0 mi SSW 12.7 mph - N/A   Clear
10:53 AM 73.9 °F 55.0 °F 52% 30.09 in 10.0 mi SW 17.3 mph 21.9 mph N/A   Scattered Clouds
11:53 AM 75.9 °F 55.0 °F 48% 30.09 in 10.0 mi SSW 13.8 mph - N/A   Partly Cloudy
12:53 PM 77.0 °F 53.1 °F 43% 30.07 in 10.0 mi SSW 11.5 mph 24.2 mph N/A   Scattered Clouds
1:53 PM 77.0 °F 53.1 °F 43% 30.04 in 10.0 mi SSW 13.8 mph 19.6 mph N/A   Partly Cloudy
2:53 PM 78.1 °F 51.1 °F 39% 30.01 in 10.0 mi SSW 15.0 mph 19.6 mph N/A   Partly Cloudy
3:53 PM 78.1 °F 51.1 °F 39% 29.98 in 10.0 mi SSW 8.1 mph - N/A   Partly Cloudy
4:53 PM 78.8 °F 51.8 °F 39% 29.98 in 10.0 mi South 15.0 mph 20.7 mph N/A   Partly Cloudy
5:53 PM 75.9 °F 52.0 °F 43% 29.96 in 10.0 mi SSW 12.7 mph - N/A   Partly Cloudy
6:53 PM 73.0 °F 52.0 °F 48% 29.96 in 10.0 mi SSW 18.4 mph - N/A   Clear
7:53 PM 71.1 °F 53.1 °F 53% 29.97 in 10.0 mi South 10.4 mph - N/A   Clear
8:53 PM 70.0 °F 55.0 °F 59% 29.99 in 10.0 mi South 10.4 mph - N/A   Clear
9:53 PM 66.9 °F 55.0 °F 66% 30.00 in 10.0 mi South 8.1 mph - N/A   Clear
10:53 PM 66.0 °F 57.0 °F 73% 30.00 in 10.0 mi South 8.1 mph - N/A   Clear
11:53 PM 64.0 °F 55.9 °F 75% 29.98 in 10.0 mi SSE 4.6 mph - N/A   Clear